Main page
METAR-TAF:

METAR-TAF

Airports :

Logan County Airport

Lincoln, Illinois, United States

latitude: 40-09-31N, longitude: 089-20-06W, elevation: 597 ft

Current weather observation

The report was made 12 minutes ago, at 15:55 UTC
Calm wind
Temperature 90°F
Humidity 46%
Pressure 30.01 in. Hg
Visibility: 10 miles
Clear sky

METAR: KAAA 071555Z AUTO 00000KT 10SM CLR 32/19 A3001 RMK AO2 T03180192

Time: 11:07 (16:07 UTC)


TAF: missing

Weather observations and forecasts of more than 4000 airports (METAR and TAF reports).

The available stations are represented by yellow and red dots on the map.

Hover mouse over dot to see the name of the station.

Then click to see weather observations and forecasts.

To change the map : click on the green buttons with a black cross to zoom in, on the green button with a dash to zoom out, or on the green arrows for adjacent maps.


METAR-TAF: